• Em Portugal
  • Lista de países
  • Para 7 dias
  • Temperatura da água
  • Mapas de satélite
  • Mapa do tempo
  • Widgets de tempo
  • user-avatar
    Iniciar Sessão

    Previsão horária em Kirish

    Hoje, 20 Fevereiro, Terça-feira

    Tempo Temperatura Precipitação Vento Pressão Humidade
    00:00 +11°C° 0,1 mm 1 m/s 734 mmHg 85%
    01:00 +11°C° 0,1 mm 1 m/s 734 mmHg 84%
    02:00 +11°C° 0 mm 1 m/s 733 mmHg 84%
    03:00 +11°C° 0,1 mm 1 m/s 733 mmHg 84%
    04:00 +11°C° 0,1 mm 1 m/s 733 mmHg 83%
    05:00 +11°C° 0,1 mm 1 m/s 733 mmHg 83%
    06:00 +11°C° 0,5 mm 1 m/s 733 mmHg 84%
    07:00 +11°C° 0,5 mm 1 m/s 733 mmHg 84%
    08:00 +10°C° 0 mm 2 m/s 733 mmHg 84%
    09:00 +10°C° 0,9 mm 2 m/s 733 mmHg 84%
    10:00 +12°C° 0,9 mm 2 m/s 733 mmHg 84%
    11:00 +12°C° 0,9 mm 2 m/s 733 mmHg 84%
    12:00 +12°C° 0,8 mm 2 m/s 732 mmHg 84%
    13:00 +12°C° 0,8 mm 2 m/s 732 mmHg 85%
    14:00 +10°C° 0 mm 2 m/s 732 mmHg 88%
    15:00 +10°C° 0,8 mm 2 m/s 732 mmHg 88%
    16:00 +10°C° 0,8 mm 2 m/s 732 mmHg 89%
    17:00 +10°C° 0,8 mm 2 m/s 732 mmHg 89%
    18:00 +11°C° 0,6 mm 1 m/s 732 mmHg 90%
    19:00 +11°C° 0,6 mm 1 m/s 732 mmHg 90%
    20:00 +11°C° 0,6 mm 1 m/s 732 mmHg 91%
    21:00 +11°C° 0,6 mm 1 m/s 732 mmHg 91%
    22:00 +11°C° 0,6 mm 1 m/s 732 mmHg 91%
    23:00 +11°C° 0,6 mm 1 m/s 732 mmHg 92%

    Amanhã, 21 Fevereiro, Quarta-feira

    Tempo Temperatura Precipitação Vento Pressão Humidade
    00:00 +11°C° 0,7 mm 1 m/s 732 mmHg 92%
    01:00 +11°C° 0,7 mm 1 m/s 731 mmHg 92%
    02:00 +11°C° 0,7 mm 1 m/s 731 mmHg 92%
    03:00 +11°C° 0,6 mm 1 m/s 731 mmHg 92%
    04:00 +11°C° 0,6 mm 1 m/s 731 mmHg 92%
    05:00 +11°C° 0,6 mm 1 m/s 731 mmHg 92%
    06:00 +11°C° 0,6 mm 1 m/s 731 mmHg 91%
    07:00 +11°C° 0,6 mm 1 m/s 731 mmHg 90%
    08:00 +11°C° 0,6 mm 1 m/s 731 mmHg 89%
    09:00 +12°C° 0,8 mm 2 m/s 731 mmHg 87%
    10:00 +12°C° 0,8 mm 2 m/s 731 mmHg 84%
    11:00 +13°C° 0,8 mm 2 m/s 731 mmHg 82%
    12:00 +13°C° 0,7 mm 2 m/s 731 mmHg 82%
    13:00 +13°C° 0,7 mm 2 m/s 730 mmHg 82%
    14:00 +13°C° 0,7 mm 2 m/s 730 mmHg 82%
    15:00 +13°C° 0,5 mm 2 m/s 730 mmHg 84%
    16:00 +13°C° 0,5 mm 2 m/s 730 mmHg 86%
    17:00 +13°C° 0,5 mm 2 m/s 730 mmHg 88%
    18:00 +12°C° 0,6 mm 2 m/s 731 mmHg 89%
    19:00 +12°C° 0,6 mm 2 m/s 731 mmHg 91%
    20:00 +12°C° 0,6 mm 1 m/s 731 mmHg 92%
    21:00 +11°C° 0,4 mm 1 m/s 731 mmHg 92%
    22:00 +11°C° 0,4 mm 1 m/s 731 mmHg 92%
    23:00 +11°C° 0,4 mm 1 m/s 732 mmHg 93%

    Depois de amanhã, 22 Fevereiro, Quinta-feira

    Tempo Temperatura Precipitação Vento Pressão Humidade
    00:00 +11°C° 0,1 mm 1 m/s 732 mmHg 93%
    01:00 +11°C° 0,1 mm 1 m/s 732 mmHg 93%
    02:00 +10°C° 0,1 mm 1 m/s 732 mmHg 93%
    03:00 +10°C° 0 mm 1 m/s 732 mmHg 92%
    04:00 +10°C° 0 mm 1 m/s 732 mmHg 92%
    05:00 +9°C° 0 mm 2 m/s 732 mmHg 91%
    06:00 +11°C° 0 mm 1 m/s 732 mmHg 90%
    07:00 +11°C° 0 mm 1 m/s 732 mmHg 88%
    08:00 +12°C° 0 mm 1 m/s 732 mmHg 86%
    09:00 +13°C° 0 mm 1 m/s 732 mmHg 81%
    10:00 +14°C° 0 mm 1 m/s 732 mmHg 76%
    11:00 +15°C° 0 mm 1 m/s 732 mmHg 71%
    12:00 +15°C° 0 mm 1 m/s 732 mmHg 68%
    13:00 +16°C° 0 mm 2 m/s 731 mmHg 66%
    14:00 +16°C° 0 mm 2 m/s 731 mmHg 64%
    15:00 +16°C° 0,1 mm 2 m/s 731 mmHg 67%
    16:00 +15°C° 0,1 mm 1 m/s 731 mmHg 70%
    17:00 +14°C° 0,1 mm 1 m/s 731 mmHg 73%
    18:00 +14°C° 0,1 mm 1 m/s 731 mmHg 76%
    19:00 +13°C° 0,1 mm 1 m/s 731 mmHg 80%
    20:00 +12°C° 0,1 mm 1 m/s 731 mmHg 83%
    21:00 +12°C° 0,1 mm 1 m/s 732 mmHg 83%
    22:00 +12°C° 0,1 mm 1 m/s 732 mmHg 83%
    23:00 +12°C° 0,1 mm 1 m/s 732 mmHg 83%

    23 Fevereiro, Sexta-feira

    Tempo Temperatura Precipitação Vento Pressão Humidade
    00:00 +12°C° 0,1 mm 1 m/s 732 mmHg 83%
    01:00 +11°C° 0,1 mm 1 m/s 732 mmHg 82%
    02:00 +11°C° 0,1 mm 1 m/s 732 mmHg 82%
    03:00 +11°C° 0,1 mm 1 m/s 732 mmHg 82%
    04:00 +11°C° 0,1 mm 1 m/s 732 mmHg 81%
    05:00 +11°C° 0,1 mm 1 m/s 731 mmHg 81%
    06:00 +11°C° 0 mm 1 m/s 732 mmHg 80%
    07:00 +12°C° 0 mm 1 m/s 732 mmHg 79%
    08:00 +12°C° 0 mm 1 m/s 732 mmHg 78%
    09:00 +13°C° 0 mm 1 m/s 732 mmHg 72%
    10:00 +14°C° 0 mm 1 m/s 732 mmHg 67%
    11:00 +16°C° 0 mm 1 m/s 732 mmHg 62%
    12:00 +16°C° 0,1 mm 1 m/s 731 mmHg 61%
    13:00 +16°C° 0,1 mm 1 m/s 731 mmHg 59%
    14:00 +17°C° 0,1 mm 2 m/s 731 mmHg 57%
    15:00 +16°C° 0,1 mm 1 m/s 731 mmHg 61%
    16:00 +16°C° 0,1 mm 1 m/s 731 mmHg 64%
    17:00 +15°C° 0,1 mm 1 m/s 731 mmHg 67%
    18:00 +14°C° 0 mm 1 m/s 731 mmHg 72%
    19:00 +13°C° 0 mm 1 m/s 731 mmHg 77%
    20:00 +11°C° 0 mm 0 m/s 732 mmHg 83%
    21:00 +10°C° 0 mm 0 m/s 732 mmHg 83%
    22:00 +11°C° 0 mm 1 m/s 732 mmHg 83%
    23:00 +11°C° 0 mm 1 m/s 732 mmHg 84%

    24 Fevereiro, Sábado

    Tempo Temperatura Precipitação Vento Pressão Humidade
    00:00 +11°C° 0 mm 1 m/s 732 mmHg 83%
    01:00 +11°C° 0 mm 1 m/s 732 mmHg 83%
    02:00 +10°C° 0 mm 1 m/s 732 mmHg 83%
    03:00 +10°C° 0 mm 1 m/s 732 mmHg 82%
    04:00 +10°C° 0 mm 1 m/s 732 mmHg 81%
    05:00 +10°C° 0 mm 1 m/s 732 mmHg 81%
    06:00 +11°C° 0 mm 1 m/s 732 mmHg 77%
    07:00 +12°C° 0 mm 1 m/s 732 mmHg 74%
    08:00 +13°C° 0 mm 1 m/s 733 mmHg 71%
    09:00 +14°C° 0 mm 1 m/s 732 mmHg 65%
    10:00 +16°C° 0 mm 1 m/s 732 mmHg 60%
    11:00 +18°C° 0 mm 1 m/s 732 mmHg 55%
    12:00 +17°C° 0,1 mm 2 m/s 732 mmHg 54%
    13:00 +17°C° 0,1 mm 2 m/s 732 mmHg 54%
    14:00 +18°C° 0,1 mm 3 m/s 731 mmHg 53%
    15:00 +17°C° 0,1 mm 3 m/s 731 mmHg 58%
    16:00 +16°C° 0,1 mm 3 m/s 731 mmHg 63%
    17:00 +14°C° 0,1 mm 3 m/s 731 mmHg 68%
    18:00 +14°C° 0 mm 2 m/s 731 mmHg 75%
    19:00 +13°C° 0 mm 2 m/s 731 mmHg 82%
    20:00 +12°C° 0 mm 2 m/s 731 mmHg 88%
    21:00 +12°C° 0,1 mm 2 m/s 731 mmHg 88%
    22:00 +12°C° 0,1 mm 2 m/s 731 mmHg 88%
    23:00 +12°C° 0,1 mm 2 m/s 731 mmHg 88%

    25 Fevereiro, Domingo

    Tempo Temperatura Precipitação Vento Pressão Humidade
    00:00 +12°C° 0,3 mm 2 m/s 731 mmHg 88%
    01:00 +11°C° 0,3 mm 3 m/s 731 mmHg 88%
    02:00 +11°C° 0,3 mm 3 m/s 730 mmHg 88%
    03:00 +11°C° 0,5 mm 3 m/s 730 mmHg 89%
    04:00 +11°C° 0,5 mm 3 m/s 730 mmHg 90%
    05:00 +11°C° 0,5 mm 3 m/s 730 mmHg 90%
    06:00 +11°C° 0,2 mm 3 m/s 730 mmHg 89%
    07:00 +11°C° 0,2 mm 3 m/s 730 mmHg 88%
    08:00 +12°C° 0,2 mm 2 m/s 730 mmHg 87%
    09:00 +12°C° 0,2 mm 3 m/s 730 mmHg 80%
    10:00 +13°C° 0,2 mm 3 m/s 730 mmHg 74%
    11:00 +14°C° 0,2 mm 3 m/s 730 mmHg 68%
    12:00 +14°C° 0,2 mm 3 m/s 729 mmHg 66%
    13:00 +14°C° 0,2 mm 3 m/s 729 mmHg 64%
    14:00 +14°C° 0,2 mm 3 m/s 728 mmHg 63%
    15:00 +14°C° 0,3 mm 3 m/s 728 mmHg 66%
    16:00 +13°C° 0,3 mm 3 m/s 728 mmHg 68%
    17:00 +13°C° 0,3 mm 3 m/s 728 mmHg 71%
    18:00 +13°C° 0,2 mm 2 m/s 729 mmHg 76%
    19:00 +12°C° 0,2 mm 2 m/s 729 mmHg 80%
    20:00 +10°C° 0,2 mm 2 m/s 729 mmHg 84%
    21:00 +10°C° 0,2 mm 2 m/s 729 mmHg 85%
    22:00 +10°C° 0,2 mm 2 m/s 729 mmHg 85%
    23:00 +9°C° 0,2 mm 2 m/s 729 mmHg 86%
    Mostrar mais